This is the latest recevied weather packets stored in our database for station/object KC3BHK-2. If no packets are shown the sender has not sent any weather packets the latest 1 day(s).
| Time | Temp. | Humidity | Pressure | Rain* | Wind** | Luminosity | Snow |
|---|---|---|---|---|---|---|---|
| 1778105625 | 20.56° C | - | - | 0 mm | 0 m/s | - | - |
| 1778105320 | 20.56° C | - | - | 0 mm | 0 m/s | - | - |
| 1778105015 | 20.56° C | - | - | 0 mm | 0.89 m/s, 186° | - | - |
| 1778103791 | 19.44° C | - | - | 0 mm | 1.34 m/s, 240° | - | - |
| 1778103486 | 20° C | - | - | 0 mm | 0.89 m/s, 198° | - | - |
| 1778102264 | 20° C | - | - | 0 mm | 0.89 m/s, 139° | - | - |
| 1778101959 | 19.44° C | - | - | 0 mm | 0.89 m/s, 153° | - | - |
| 1778101653 | 18.89° C | - | - | 0 mm | 0.89 m/s, 143° | - | - |
| 1778100430 | 18.89° C | - | - | 0 mm | 0 m/s | - | - |
| 1778100124 | 18.89° C | - | - | 0 mm | 0 m/s | - | - |
| 1778098901 | 19.44° C | - | - | 0 mm | 0 m/s | - | - |
| 1778098596 | 18.89° C | - | - | 0 mm | 0.89 m/s, 193° | - | - |
| 1778097374 | 19.44° C | - | - | 0 mm | 1.79 m/s, 153° | - | - |
| 1778094932 | 20.56° C | - | - | 0 mm | 4.02 m/s, 141° | - | - |
| 1778094627 | 20.56° C | - | - | 0 mm | 2.24 m/s, 186° | - | - |
| 1778093710 | 20.56° C | - | - | 0 mm | 4.02 m/s, 156° | - | - |
| 1778092186 | 19.44° C | - | - | 0 mm | 1.34 m/s, 186° | - | - |
| 1778091878 | 19.44° C | - | - | 0 mm | 3.13 m/s, 174° | - | - |
| 1778089739 | 18.89° C | - | - | 0 mm | 3.13 m/s, 188° | - | - |
| 1778089434 | 18.89° C | - | - | 0 mm | 1.79 m/s, 172° | - | - |
| 1778088520 | 18.89° C | - | - | 0 mm | 2.68 m/s, 179° | - | - |
| 1778086689 | 19.44° C | - | - | 0 mm | 3.13 m/s, 173° | - | - |
| 1778085772 | 18.89° C | - | - | 0 mm | 5.81 m/s, 163° | - | - |
| 1778085162 | 18.33° C | - | - | 0 mm | 3.58 m/s, 170° | - | - |
| 1778082106 | 16.67° C | - | - | 0 mm | 5.36 m/s, 169° | - | - |
* Rain latest hour (hover to see other rain measurements)
** Current wind speed in m/s (hover to see current wind gust speed)